Find Globalstar M075

NORAD ID: 37192 Int'l Des: 2010-054 Owner: GLOB Country: US Constellation: globalstar operational
LEOCIRCULAR

Live Position

Loading 3D Globe...

About Globalstar M075

Description loading...

Upcoming Passes

Passes for default location (London). Set your location on the main map for personalized predictions.

Altitude History

Loading altitude history...

Two-Line Element Set

1 37192U 10054E 26106.06561994 -.00000085 00000-0 10274-3 0 9998
2 37192 51.9966 339.3403 0000797 88.3486 76.9168 12.62265824714091
Epoch: Apr 16, 2026 • Age: 14 hours

Current Status

Altitude 1427.5 km
Velocity 7.15 km/s
Sub-Earth Point -40.59°S, 125.88°E
Launch Date Oct 19, 2010
Age 15.4 years
Type communications

Technical Details

Classification Payload
Mass 715.00 kg
Dry Mass 500.00 kg
Total Mass 715.00 kg
Length 4.00 m
Diameter 2.00 m
Span 12.00 m
Shape Trap Cyl + 2 Pan
Manufacturer THALR
Bus Type Prisma
Phase Status In Orbit
Owner/State GLOB/US

Most Searched